Date,TemperatureHighF,TemperatureAvgF,TemperatureLowF,DewpointHighF,DewpointAvgF,DewpointLowF,HumidityHigh,HumidityAvg,HumidityLow,PressureMaxIn,PressureMinIn,WindSpeedMaxMPH,WindSpeedAvgMPH,GustSpeedMaxMPH,PrecipitationSumIn
2013-5-1,77.5,60.3,45.9,59.5,51.0,38.8,92,73,44,30.17,29.83,29,8,34,0.00
2013-5-2,49.2,43.6,38.8,43.3,38.6,35.1,93,83,73,30.23,30.13,26,11,33,0.42
2013-5-3,46.9,41.2,37.9,43.8,39.2,36.1,96,92,87,30.17,29.97,25,11,30,0.27
2013-5-4,60.4,50.2,43.8,48.1,43.6,40.8,89,78,63,30.03,29.96,19,7,27,0.00
2013-5-5,56.8,51.2,45.6,43.8,41.1,37.2,85,69,49,30.04,29.98,19,6,23,0.00
2013-5-6,60.3,52.2,48.1,45.2,41.2,37.6,80,66,46,30.03,29.94,11,2,13,0.00
2013-5-7,68.6,53.5,46.8,47.5,41.2,36.7,80,64,44,30.02,29.95,13,2,14,0.00
2013-5-8,72.8,55.1,45.7,50.5,43.4,37.8,86,66,40,29.99,29.91,9,1,11,0.00
2013-5-9,63.2,50.9,40.9,49.9,45.2,39.6,95,81,60,29.91,29.86,37,6,40,0.54
2013-5-10,43.2,41.7,40.8,41.3,39.9,38.4,96,93,91,29.94,29.79,31,10,38,0.97
2013-5-11,54.7,46.2,39.1,49.8,37.1,26.2,100,74,40,29.96,29.71,30,8,35,0.04
2013-5-12,51.9,43.0,37.1,37.4,29.9,24.4,90,62,36,30.09,29.95,20,8,24,0.00
2013-5-13,49.1,42.3,32.8,40.3,34.5,30.5,93,74,52,30.14,29.92,15,3,15,0.00
2013-5-14,80.0,59.7,46.3,57.9,48.1,34.1,87,67,44,29.92,29.46,23,4,32,0.00
2013-5-15,77.4,68.0,58.0,60.8,50.5,44.5,71,54,37,29.76,29.46,21,4,24,0.00
2013-5-16,72.1,59.0,51.6,50.3,42.8,30.9,74,56,38,29.95,29.75,19,6,22,0.00
2013-5-17,54.5,50.0,45.9,47.2,43.3,36.7,93,79,54,30.09,29.93,21,8,24,0.34
2013-5-18,56.4,51.8,48.0,48.5,45.8,44.3,89,80,73,30.05,29.92,10,2,10,0.00
2013-5-19,77.2,58.1,48.6,65.0,53.2,45.7,93,84,64,29.93,29.67,17,2,23,0.00
2013-5-20,86.1,71.1,54.9,63.7,57.6,51.7,96,66,35,29.70,29.59,26,5,32,0.00
2013-5-21,80.7,68.8,55.4,64.7,59.6,53.5,98,75,47,29.62,29.53,27,5,31,0.18
2013-5-22,64.7,55.2,48.5,58.3,53.0,48.0,98,93,79,29.71,29.57,20,3,21,0.90
2013-5-23,52.1,46.1,42.2,51.5,42.2,36.0,98,86,75,30.27,29.71,25,11,29,0.09
2013-5-24,46.7,43.4,38.6,40.8,35.8,32.6,85,74,62,30.41,30.27,15,3,19,0.00
2013-5-25,50.6,46.5,41.6,41.2,38.5,34.3,90,74,61,30.39,30.26,9,1,12,0.00
2013-5-26,51.7,47.4,41.2,45.0,41.4,36.2,87,80,67,30.28,30.14,12,3,18,0.00
2013-5-27,52.1,48.6,46.3,48.0,45.4,40.1,98,89,66,30.15,29.87,17,3,22,0.09
2013-5-28,57.4,50.4,46.7,57.1,49.7,46.2,100,97,93,29.87,29.67,11,2,14,0.51
2013-5-29,69.6,57.8,49.8,63.3,55.4,49.3,99,92,74,29.87,29.72,14,2,18,0.00
2013-5-30,74.8,62.8,54.5,66.9,59.0,52.4,97,88,75,29.84,29.69,18,4,22,0.15
2013-5-31,78.3,66.5,55.0,67.1,60.8,52.5,100,83,56,29.79,29.63,21,5,28,0.18